This demonstration page uses our WeatherBlox Daily Observations layout. Learn more.

Hourly Observations for January 20, 2017

Temp ( °F °C ) Dew Point ( °F °C ) Humidity (%) Winds ( mph kmh ) Pressure ( in mb ) Visibility ( mi km ) Precip ( " mm )
12:37 am 00:37 Cloudy with Mist and Fog 40 4.4 39 3.9 97 97 Calm 29.62 1003 4 6.43736 0 0
12:54 am 00:54 Cloudy with Mist and Fog 40 4.4 39 3.9 97 97 Calm 29.61 1003 4 6.43736 0 0
1:00 am 01:00 Cloudy with Mist and Fog 39 4 39 4 100 100 Calm 29.62 1003 1.75 2.816345 0 0
1:28 am 01:28 Cloudy with Mist and Fog 39 4 39 4 100 100 Calm 29.62 1003 3 4.82802 0 0
1:44 am 01:44 Cloudy with Mist and Fog 39 4 39 4 100 100 Calm 29.62 1003 2.5 4.02335 0 0
1:50 am 01:50 Cloudy with Mist and Fog 39 4 37 3 93 93 Calm 29.62 1003 0.75 1.207005 0 0
1:54 am 01:54 Cloudy with Fog 39 3.9 38 3.3 96 96 Calm 29.61 1003 0.5 0.80467 0 0
2:14 am 02:14 Cloudy with Mist and Fog 39 4 37 3 93 93 N 3 6 29.62 1003 1 1.60934 0 0
2:19 am 02:19 Cloudy with Mist and Fog 39 3.9 38 3.3 96 96 NNW 5 7 29.62 1003 0.75 1.207005 0 0
2:31 am 02:31 Cloudy with Fog 39 3.9 38 3.3 96 96 NNE 3 6 29.62 1003 0.5 0.80467 0 0
2:54 am 02:54 Cloudy with Fog 38 3.3 38 3.3 100 100 NNE 3 6 29.6 1002 0.5 0.80467 0 0
3:04 am 03:04 Cloudy with Mist and Fog 39 3.9 38 3.3 96 96 Calm 29.62 1003 1 1.60934 0 0
3:30 am 03:30 Cloudy with Mist and Fog 39 4 37 3 93 93 Calm 29.62 1003 0.75 1.207005 0 0
3:54 am 03:54 Mostly Cloudy with Fog 39 3.9 39 3.9 100 100 W 5 7 29.59 1002 0.25 0.402335 0 0
4:28 am 04:28 Mostly Cloudy with Fog 37 3 37 3 100 100 NNE 8 13 29.59 1002 0.5 0.80467 0 0
4:35 am 04:35 Mostly Cloudy with Fog 38 3.3 37 2.8 97 97 NNE 7 11 29.59 1002 0.5 0.80467 0 0
4:43 am 04:43 Mostly Cloudy with Fog 38 3.3 38 3.3 100 100 N 5 7 29.59 1002 0.25 0.402335 0 0
4:50 am 04:50 Mostly Cloudy with Fog 37 3 37 3 100 100 N 5 7 29.59 1002 0.5 0.80467 0 0
4:54 am 04:54 Mostly Cloudy with Fog 38 3.3 38 3.3 100 100 N 5 7 29.55 1001 0.5 0.80467 0 0
5:17 am 05:17 Cloudy with Mist and Fog 38 3.3 38 3.3 100 100 WSW 3 6 29.62 1003 1 1.60934 0 0
5:24 am 05:24 Cloudy with Fog 38 3.3 38 3.3 100 100 Calm 29.62 1003 0.5 0.80467 0 0
5:37 am 05:37 Cloudy with Fog 37 2.8 37 2.8 100 100 Calm 29.62 1003 0.5 0.80467 0 0
5:54 am 05:54 Cloudy with Fog 37 2.8 37 2.8 100 100 S 3 6 29.57 1001 0.5 0.80467 0 0
6:08 am 06:08 Cloudy with Fog 37 3 37 3 100 100 S 3 6 29.62 1003 0.5 0.80467 0 0
6:52 am 06:52 Cloudy with Mist and Fog 37 3 37 3 100 100 Calm 29.62 1003 1.5 2.41401 0 0
6:54 am 06:54 Cloudy with Mist and Fog 38 3.3 38 3.3 100 100 Calm 29.58 1002 1.5 2.41401 0 0
7:07 am 07:07 Cloudy with Mist and Fog 38 3.3 38 3.3 100 100 Calm 29.62 1003 3 4.82802 0 0
7:54 am 07:54 Cloudy with Mist and Fog 38 3.3 38 3.3 100 100 Calm 29.59 1002 5 8.0467 0 0
7:56 am 07:56 Cloudy with Mist and Fog 39 4 37 3 93 93 Calm 29.62 1003 2 3.21868 0 0
8:20 am 08:20 Cloudy with Fog 39 4 37 3 93 93 Calm 29.62 1003 0.5 0.80467 0 0
8:37 am 08:37 Mostly Cloudy with Fog 39 3.9 38 3.3 96 96 NE 3 6 29.62 1003 0.25 0.402335 0 0
8:54 am 08:54 Mostly Cloudy with Fog 39 3.9 39 3.9 100 100 SSE 3 6 29.57 1002 5 8.0467 0 0
9:12 am 09:12 Mostly Cloudy with Fog 39 4 39 4 100 100 Calm 29.62 1003 0.25 0.402335 0 0
9:39 am 09:39 Mostly Cloudy with Fog 40 4.4 39 3.9 97 97 Calm 29.59 1002 0.25 0.402335 0 0.0254
9:54 am 09:54 Mostly Cloudy with Fog 40 4.4 40 4.4 100 100 NE 5 7 29.55 1001 0.5 0.80467 0 0.0254
10:05 am 10:05 Cloudy with Mist and Fog 41 5 41 5 100 100 Calm 29.59 1002 1.25 2.011675 0 0
10:13 am 10:13 Cloudy with Mist and Fog 41 5 41 5 100 100 Calm 29.62 1003 3 4.82802 0 0
10:54 am 10:54 Cloudy 41 5 41 5 100 100 SE 6 9 29.55 1001 8 12.87472 0 0
11:54 am 11:54 Cloudy 42 5.6 41 5 96 96 ESE 7 11 29.53 1000 8 12.87472 0 0
12:54 pm 12:54 Cloudy 43 6.1 42 5.6 97 97 SE 8 13 29.49 999 10 16.0934 0 0
1:07 pm 13:07 Cloudy 43 6.1 42 5.6 97 97 ESE 6 9 29.5 999 10 16.0934 0 0
1:54 pm 13:54 Cloudy 45 7.2 43 6.1 93 93 SE 5 7 29.46 998 9 14.48406 0 0
2:54 pm 14:54 Cloudy 45 7.2 43 6.1 93 93 E 5 7 29.45 997 9 14.48406 0 0
3:54 pm 15:54 Cloudy 45 7.2 43 6.1 93 93 ESE 8 13 29.45 997 9 14.48406 0 0
4:33 pm 16:33 Cloudy 44 6.7 42 5.6 93 93 ESE 8 13 29.47 998 7 11.26538 0 0
4:54 pm 16:54 Cloudy with Mist and Fog 43 6.1 43 6.1 100 100 ESE 7 11 29.45 997 4 6.43736 0 0
4:58 pm 16:58 Cloudy with Mist and Fog 43 6.1 43 6.1 100 100 ESE 8 13 29.47 998 0.75 1.207005 0 0
5:54 pm 17:54 Mostly Cloudy with Mist and Fog 43 6.1 42 5.6 97 97 ESE 8 13 29.45 997 0.75 1.207005 0 0.0254
6:03 pm 18:03 Cloudy with Mist and Fog 43 6.1 42 5.6 97 97 ESE 8 13 29.47 998 1.25 2.011675 0 0
6:28 pm 18:28 Cloudy with Mist and Fog 43 6 43 6 100 100 ESE 9 15 29.47 998 2.5 4.02335 0 0
6:36 pm 18:36 Cloudy with Mist and Fog 43 6 43 6 100 100 ESE 8 13 29.47 998 3 4.82802 0 0
6:49 pm 18:49 Cloudy with Mist and Fog 43 6 43 6 100 100 ESE 8 13 29.47 998 1.75 2.816345 0 0
6:54 pm 18:54 Cloudy with Mist and Fog 42 5.6 42 5.6 100 100 ESE 8 13 29.45 997 1.25 2.011675 0 0
7:54 pm 19:54 Cloudy with Light Rain 43 6.1 42 5.6 97 97 SE 8 13 29.45 997 3 4.82802 0.01 0.254
8:28 pm 20:28 Cloudy with Light Rain 43 6 43 6 100 100 S 3 6 29.47 998 2.5 4.02335 0 0
8:54 pm 20:54 Cloudy with Mist and Fog 42 5.6 42 5.6 100 100 SSE 5 7 29.44 997 6 9.65604 0.04 1.016
9:54 pm 21:54 Cloudy with Mist and Fog 42 5.6 42 5.6 100 100 SW 3 6 29.43 997 3 4.82802 0 0
10:04 pm 22:04 Cloudy with Mist and Fog 43 6 41 5 93 93 WSW 5 7 29.44 997 1.75 2.816345 0 0
10:16 pm 22:16 Mostly Cloudy with Fog 43 6 43 6 100 100 S 3 6 29.44 997 0.5 0.80467 0 0
10:44 pm 22:44 Mostly Cloudy with Light Rain 43 6 41 5 93 93 Calm 29.44 997 0.25 0.402335 0 0
10:54 pm 22:54 Mostly Cloudy with Light Rain 42 5.6 41 5 96 96 Calm 29.42 996 0.5 0.80467 0 0.0254
11:54 pm 23:54 Mostly Cloudy with Fog 41 5 41 5 100 100 S 3 6 29.42 996 0.5 0.80467 0 0.0254

Powered by AerisWeather